TA2DMX-13 Weather Reports


time (UTC)temp
C
wind
direction
speed
KPH
gust
KPH
rain 1hr
cm
rain 24hr
cm
rain mn
cm
humidity
%
barometer
mb
20260507212119 18 270 0.0 0.0 0.00 0.00 0.00 50 1012.3
20260507210516 18 270 0.0 0.0 0.00 0.00 0.00 47 1012.2
20260507204913 18 225 0.0 0.0 0.00 0.00 0.00 46 1012.1
20260507201806 18 225 0.0 0.0 0.00 0.00 0.00 44 1012.0
20260507200204 18 270 0.0 0.0 0.00 0.00 0.00 44 1011.8
20260507194520 18 270 0.0 0.0 0.00 0.00 0.00 42 1011.8
20260507193018 19 270 0.0 0.0 0.00 0.00 0.00 42 1011.8
20260507191515 19 270 0.0 0.0 0.00 0.00 0.00 41 1011.7
20260507190012 19 270 0.0 0.0 0.00 0.00 0.00 41 1011.5
20260507184509 20 225 0.0 0.0 0.00 0.00 0.00 40 1011.4
20260507183007 20 225 0.0 0.0 0.00 0.00 0.00 40 1011.2
20260507181504 20 315 0.0 0.0 0.00 0.00 0.00 38 1011.1
20260507175940 20 270 0.0 0.0 0.00 0.00 0.00 37 1011.0
20260507174407 20 270 0.0 0.0 0.00 0.00 0.00 36 1010.9
20260507171905 21 315 0.0 0.0 0.00 0.00 0.00 35 1010.7
20260507170300 21 270 0.0 0.0 0.00 0.00 0.00 33 1010.6
20260507163911 22 270 0.0 0.0 0.00 0.00 0.00 31 1010.5
20260507162308 22 270 0.0 0.0 0.00 0.00 0.00 30 1010.4
20260507160704 22 270 0.0 0.0 0.00 0.00 0.00 30 1010.5
20260507154516 23 270 0.0 0.0 0.00 0.00 0.00 29 1010.6
20260507151504 23 225 0.0 0.0 0.00 0.00 0.00 27 1010.8
20260507145928 24 225 0.0 0.0 0.00 0.00 0.00 26 1010.8
20260507144324 24 270 0.0 0.0 0.00 0.00 0.00 27 1011.0
20260507142721 25 270 0.0 0.0 0.00 0.00 0.00 25 1011.0
20260507141119 25 315 0.0 0.0 0.00 0.00 0.00 25 1011.1
20260507135515 25 270 0.0 0.0 0.00 0.00 0.00 25 1011.1
20260507133912 25 0 0.0 0.0 0.00 0.00 0.00 25 1011.0
20260507132308 25 225 0.0 0.0 0.00 0.00 0.00 25 1011.1
20260507124204 25 315 0.0 0.0 0.00 0.00 0.00 26 1011.3
20260507113024 25 315 0.0 0.0 0.00 0.00 0.00 27 1011.8
20260507110019 30 270 0.0 0.0 0.00 0.00 0.00 20 1011.5
20260507103006 38 270 0.0 0.0 0.00 0.00 0.00 13 1011.3
20260507101204 37 0 0.0 0.0 0.00 0.00 0.00 13 1011.4
20260507092204 37 315 0.0 0.0 0.00 0.00 0.00 13 1011.7
20260507085013 39 270 0.0 0.0 0.00 0.00 0.00 11 1011.8
20260507083411 38 270 0.0 0.0 0.00 0.00 0.00 13 1011.8
20260507081808 29 270 0.0 0.0 0.00 0.00 0.00 23 1012.3
20260507080203 25 270 0.0 0.0 0.00 0.00 0.00 27 1012.3
20260507072803 30 0 0.0 0.0 0.00 0.00 0.00 21 1012.1
20260507065517 40 0 0.0 0.0 0.00 0.00 0.00 12 1011.8
20260507063913 38 270 0.0 0.0 0.00 0.00 0.00 14 1011.9
20260507062309 37 270 0.0 0.0 0.00 0.00 0.00 16 1012.0
20260507060705 37 225 0.0 0.0 0.00 0.00 0.00 16 1011.9
20260507052521 35 270 0.0 0.0 0.00 0.00 0.00 20 1011.7
20260507050917 31 270 0.0 0.0 0.00 0.00 0.00 25 1011.9
20260507045316 30 270 0.0 0.0 0.00 0.00 0.00 28 1011.9
20260507043704 26 270 0.0 0.0 0.00 0.00 0.00 35 1011.9
20260507033911 12 0 0.0 0.0 0.00 0.00 0.00 77 1012.0
20260507032308 12 0 0.0 0.0 0.00 0.00 0.00 79 1011.9
20260507030705 11 270 0.0 0.0 0.00 0.00 0.00 79 1011.8
20260507024216 11 315 0.0 0.0 0.00 0.00 0.00 79 1011.7
20260507022611 11 270 0.0 0.0 0.00 0.00 0.00 79 1011.6
20260507021008 11 0 0.0 0.0 0.00 0.00 0.00 78 1011.5
20260507015404 11 0 0.0 0.0 0.00 0.00 0.00 78 1011.5
20260507012408 11 0 0.0 0.0 0.00 0.00 0.00 78 1011.4
20260507010703 12 0 0.0 0.0 0.00 0.00 0.00 78 1011.4
20260507004513 12 225 0.0 0.0 0.00 0.00 0.00 77 1011.5
20260507003009 12 270 0.0 0.0 0.00 0.00 0.00 76 1011.4
20260506234507 12 270 0.0 0.0 0.00 0.00 0.00 75 1011.4
20260506233005 12 270 0.0 0.0 0.00 0.00 0.00 75 1011.5
20260506231504 12 0 0.0 0.0 0.00 0.00 0.00 75 1011.5
20260506230006 12 0 0.0 0.0 0.00 0.00 0.00 75 1011.6
20260506224309 12 0 0.0 0.0 0.00 0.00 0.00 74 1011.5
20260506222703 12 270 0.0 0.0 0.00 0.00 0.00 75 1011.4